{"data":{"norad_id":52488,"intl_designator":"2022-049AP","name":"STARLINK-3892","alt_names":[],"object_type":"PAYLOAD","status":"ACTIVE","operator":null,"country":"US","launch_date":"2022-05-06","launch_site_code":"AFETR","launch_vehicle":null,"mission":null,"orbit_class":"UNKNOWN","rcs_meters":null,"size_class":null,"mass_kg":null,"dimensions":null,"purposes":["comms"],"wikipedia_slug":null,"has_3d_model":false,"image_url":null,"decayed_at":null,"tle_current":{"epoch":"2026-05-25T04:29:17.680416Z","epoch_age_seconds":52912,"freshness":"FRESH","line1":"1 52488U 22049AP  26145.18701019  .00000545  00000+0  52323-4 0  9991","line2":"2 52488  53.2135  75.7091 0001418  78.2348 281.8803 15.08839406223802","mean_motion":15.08839406,"eccentricity":0.0001418,"inclination_deg":53.2135,"raan_deg":75.7091,"arg_perigee_deg":78.2348,"mean_anomaly_deg":281.8803,"bstar":5.2323e-5,"rev_number":22380,"period_min":95.437592249629,"perigee_km":538.76424888846,"apogee_km":540.72616028168,"semimajor_km":6917.8822045851,"source":"CELESTRAK","updated_at":"2026-05-25T13:38:17.157125Z"}}}